| time (UTC) | temp C | wind direction | speed KPH | gust KPH | rain 1hr cm | rain 24hr cm | rain mn cm | humidity % | barometer mb |
| 20260505041515 | 22 | 182 | 3.2 | 12.9 | 0.00 | 0.00 | 0.00 | 83 | 1010.6 |
| 20260505040037 | 22 | 154 | 3.2 | 11.3 | 0.00 | 0.00 | 0.00 | 81 | 1010.8 |
| 20260505034537 | 22 | 177 | 3.2 | 17.7 | 0.00 | 0.00 | 0.00 | 80 | 1011.0 |
| 20260505033013 | 22 | 192 | 4.8 | 20.9 | 0.00 | 0.00 | 0.00 | 79 | 1011.0 |
| 20260505031529 | 22 | 197 | 6.4 | 14.5 | 0.00 | 0.00 | 0.00 | 79 | 1011.0 |
| 20260505030011 | 22 | 190 | 3.2 | 17.7 | 0.00 | 0.00 | 0.00 | 79 | 1010.8 |
| 20260505024537 | 22 | 162 | 4.8 | 17.7 | 0.00 | 0.00 | 0.00 | 78 | 1010.9 |
| 20260505023021 | 22 | 165 | 8.0 | 17.7 | 0.00 | 0.00 | 0.00 | 78 | 1010.8 |
| 20260505021520 | 22 | 213 | 4.8 | 16.1 | 0.00 | 0.00 | 0.00 | 77 | 1010.8 |
| 20260505020022 | 22 | 162 | 4.8 | 17.7 | 0.00 | 0.00 | 0.00 | 78 | 1010.7 |
| 20260505014517 | 22 | 153 | 6.4 | 16.1 | 0.00 | 0.00 | 0.00 | 77 | 1010.3 |
| 20260505013037 | 22 | 208 | 6.4 | 16.1 | 0.00 | 0.00 | 0.00 | 77 | 1010.2 |
| 20260505011528 | 23 | 133 | 4.8 | 19.3 | 0.00 | 0.00 | 0.00 | 77 | 1010.4 |
| 20260505010023 | 23 | 173 | 3.2 | 14.5 | 0.00 | 0.00 | 0.00 | 78 | 1010.3 |
| 20260505004526 | 23 | 171 | 3.2 | 14.5 | 0.00 | 0.00 | 0.00 | 75 | 1010.2 |
| 20260505003021 | 24 | 171 | 3.2 | 11.3 | 0.00 | 0.00 | 0.00 | 74 | 1010.3 |
| 20260505001538 | 24 | 169 | 3.2 | 12.9 | 0.00 | 0.00 | 0.00 | 75 | 1010.4 |
| 20260505000011 | 24 | 200 | 4.8 | 16.1 | 0.00 | 0.00 | 0.00 | 72 | 1010.3 |
| 20260504234512 | 25 | 157 | 4.8 | 16.1 | 0.00 | 0.00 | 0.00 | 70 | 1010.4 |
| 20260504233030 | 25 | 173 | 6.4 | 17.7 | 0.00 | 0.00 | 0.00 | 70 | 1010.5 |
| 20260504231531 | 25 | 168 | 9.7 | 17.7 | 0.00 | 0.00 | 0.00 | 70 | 1010.7 |
| 20260504230050 | 26 | 182 | 3.2 | 16.1 | 0.00 | 0.00 | 0.00 | 68 | 1010.7 |
| 20260504224524 | 26 | 208 | 4.8 | 20.9 | 0.00 | 0.00 | 0.00 | 67 | 1010.8 |
| 20260504223029 | 26 | 201 | 9.7 | 25.7 | 0.00 | 0.00 | 0.00 | 67 | 1011.0 |
| 20260504221517 | 26 | 161 | 3.2 | 20.9 | 0.00 | 0.00 | 0.00 | 67 | 1011.2 |
| 20260504220018 | 26 | 183 | 6.4 | 16.1 | 0.00 | 0.00 | 0.00 | 66 | 1011.2 |
| 20260504214520 | 27 | 135 | 6.4 | 19.3 | 0.00 | 0.00 | 0.00 | 66 | 1011.2 |
| 20260504213020 | 28 | 176 | 8.0 | 20.9 | 0.00 | 0.00 | 0.00 | 63 | 1011.6 |
| 20260504211515 | 29 | 184 | 1.6 | 12.9 | 0.00 | 0.00 | 0.00 | 63 | 1011.7 |
| 20260504210024 | 28 | 191 | 1.6 | 12.9 | 0.00 | 0.00 | 0.00 | 63 | 1012.0 |
| 20260504204524 | 28 | 130 | 1.6 | 14.5 | 0.00 | 0.00 | 0.00 | 62 | 1012.0 |
| 20260504203019 | 28 | 148 | 8.0 | 16.1 | 0.00 | 0.00 | 0.00 | 61 | 1012.3 |
| 20260504201538 | 28 | 141 | 3.2 | 16.1 | 0.00 | 0.00 | 0.00 | 63 | 1012.4 |
| 20260504200014 | 28 | 128 | 4.8 | 22.5 | 0.00 | 0.00 | 0.00 | 61 | 1012.7 |
| 20260504194526 | 28 | 138 | 4.8 | 12.9 | 0.00 | 0.00 | 0.00 | 58 | 1012.8 |
| 20260504193045 | 28 | 206 | 6.4 | 14.5 | 0.00 | 0.00 | 0.00 | 57 | 1013.1 |
| 20260504191527 | 28 | 180 | 4.8 | 17.7 | 0.00 | 0.00 | 0.00 | 54 | 1013.4 |
| 20260504190045 | 28 | 185 | 8.0 | 16.1 | 0.00 | 0.00 | 0.00 | 53 | 1013.3 |
| 20260504184525 | 28 | 193 | 8.0 | 24.1 | 0.00 | 0.00 | 0.00 | 57 | 1013.7 |
| 20260504183025 | 28 | 188 | 6.4 | 17.7 | 0.00 | 0.00 | 0.00 | 57 | 1013.5 |
| 20260504181512 | 27 | 192 | 4.8 | 17.7 | 0.00 | 0.00 | 0.00 | 57 | 1014.0 |
| 20260504180012 | 27 | 186 | 6.4 | 16.1 | 0.00 | 0.00 | 0.00 | 61 | 1014.1 |
| 20260504174511 | 26 | 200 | 4.8 | 17.7 | 0.00 | 0.00 | 0.00 | 60 | 1014.3 |
| 20260504173035 | 26 | 173 | 4.8 | 17.7 | 0.00 | 0.00 | 0.00 | 64 | 1014.4 |
| 20260504171514 | 26 | 148 | 9.7 | 22.5 | 0.00 | 0.00 | 0.00 | 57 | 1014.8 |
| 20260504081518 | 15 | 159 | 0.0 | 0.0 | 0.00 | 0.00 | 0.00 | 87 | 1016.1 |
| 20260504050021 | 15 | 159 | 0.0 | 1.6 | 0.00 | 0.00 | 0.00 | 83 | 1018.0 |